Temp
-5 -5 -6 -7 -7 -7 -6 -6 -6 -6 -6 -6 -6 -6 -7 -7 -7 -6 -6 -6 -6 -6 -6 -6 -6 -6 -6 -6 -7 -7 -7 -7 -7 -7 -7 -7 -7 -7 -7 -7 -6 -7 -7 -7 -7 -7 -7 -7 -7 -7 -6 -6 -6 -7 -7 -7 -7 -7 -7 -7 -7 -7 -7
-6 -6 -6 -7 -6 -6 -6 -6 -6 -6 -6 -7 -7 -7 -7 -7 -7 -6 -6 -6 -6 -6 -6 -6 -6 -6 -6 -6 -7 -7 -7 -7 -7 -7 -7 -7 -7 -7 -7 -7 -7 -7 -7 -7 -7 -7 -7 -7 -7 -6 -6 -6 -6 -6 -7 -7 -6 -7 -7 -7 -7 -7 -7
-7 -7 -7 -7 -7 -7 -7 -6 -6 -6 -6 -7 -7 -7 -7 -7 -7 -7 -6 -6 -6 -6 -6 -6 -6 -6 -6 -6 -6 -7 -6 -7 -7 -7 -7 -7 -7 -7 -7 -7 -7 -7 -7 -7 -7 -7 -7 -7 -7 -7 -7 -7 -7 -7 -6 -6 -7 -7 -7 -7 -7 -7 -7
-7 -7 -7 -7 -7 -7 -7 -7 -7 -6 -6 -6 -6 -6 -7 -7 -7 -6 -6 -6 -6 -6 -6 -6 -6 -6 -6 -6 -7 -7 -7 -7 -7 -7 -7 -7 -7 -7 -7 -7 -7 -7 -7 -7 -7 -7 -7 -7 -7 -7 -7 -7 -7 -7 -7 -7 -7 -7 -7 -7 -7 -7 -7
-7 -7 -7 -6 -6 -6 -7 -7 -7 -7 -7 -7 -7 -7 -7 -6 -6 -6 -6 -6 -6 -6 -6 -6 -6 -6 -7 -7 -7 -7 -7 -7 -7 -7 -7 -7 -7 -7 -7 -7 -7 -7 -7 -7 -7 -7 -7 -7 -7 -7 -7 -7 -7 -7 -7 -7 -7 -7 -7 -7 -7 -7 -7
-7 -7 -7 -6 -6 -6 -6 -6 -6 -6 -7 -7 -7 -7 -7 -6 -6 -6 -7 -6 -6 -7 -7 -6 -6 -6 -7 -7 -7 -7 -7 -7 -7 -7 -7 -7 -7 -7 -7 -7 -7 -7 -7 -7 -7 -7 -7 -7 -7 -7 -7 -7 -7 -7 -7 -7 -7 -7 -7 -7 -7 -7 -7
-7 -7 -7 -6 -6 -6 -6 -6 -6 -6 -6 -7 -7 -7 -6 -6 -6 -7 -7 -7 -7 -7 -7 -6 -6 -6 -7 -7 -7 -7 -7 -7 -7 -7 -7 -7 -7 -8 -7 -7 -7 -7 -7 -7 -7 -7 -7 -7 -7 -7 -7 -7 -7 -7 -7 -7 -7 -7 -7 -7 -7 -7 -7
-7 -7 -7 -6 -6 -7 -6 -6 -6 -6 -6 -7 -7 -7 -7 -6 -6 -7 -7 -6 -6 -7 -7 -6 -7 -7 -7 -7 -7 -7 -7 -7 -7 -7 -7 -7 -8 -8 -7 -7 -7 -7 -7 -7 -7 -7 -7 -7 -7 -7 -7 -7 -7 -7 -7 -7 -7 -7 -8 -7 -7 -8 -8
-7 -7 -7 -7 -7 -7 -7 -7 -7 -6 -7 -7 -7 -7 -7 -7 -7 -7 -7 -6 -6 -6 -7 -6 -7 -7 -7 -7 -7 -7 -7 -7 -7 -7 -7 -7 -7 -7 -7 -7 -7 -7 -7 -7 -7 -7 -7 -7 -7 -6 -6 -6 -6 -7 -7 -7 -7 -8 -8 -8 -8 -8 -8
-7 -7 -7 -6 -6 -7 -7 -7 -7 -7 -7 -7 -7 -7 -7 -7 -7 -7 -7 -7 -7 -7 -7 -7 -7 -7 -7 -7 -7 -7 -7 -7 -7 -7 -7 -7 -7 -7 -7 -7 -7 -7 -7 -7 -7 -7 -7 -7 -7 -6 -6 -6 -6 -7 -7 -7 -8 -8 -8 -8 -8 -8 -8
-7 -6 -6 -7 -7 -7 -7 -7 -7 -7 -7 -7 -7 -7 -7 -7 -7 -7 -7 -7 -7 -7 -7 -7 -7 -7 -7 -7 -7 -7 -7 -7 -7 -7 -7 -7 -7 -7 -7 -7 -7 -7 -7 -7 -7 -7 -7 -7 -7 -6 -6 -6 -6 -7 -7 -7 -8 -8 -8 -8 -8 -8 -8
-7 -6 -7 -7 -7 -7 -7 -7 -6 -7 -7 -7 -7 -7 -7 -7 -7 -7 -7 -7 -7 -7 -7 -7 -7 -7 -7 -7 -7 -7 -7 -7 -7 -7 -7 -7 -7 -7 -7 -7 -8 -8 -8 -8 -7 -7 -7 -7 -7 -7 -6 -6 -6 -7 -7 -7 -8 -8 -8 -8 -8 -8 -8
-7 -6 -7 -7 -7 -7 -7 -7 -6 -7 -7 -7 -7 -7 -7 -7 -7 -7 -7 -7 -7 -7 -7 -7 -7 -7 -7 -7 -7 -7 -7 -7 -7 -7 -8 -7 -7 -8 -8 -8 -8 -8 -8 -8 -8 -7 -7 -7 -7 -7 -6 -6 -6 -7 -7 -7 -8 -8 -8 -8 -8 -8 -8
-7 -7 -7 -7 -7 -7 -7 -7 -7 -7 -7 -7 -7 -7 -7 -7 -7 -7 -7 -7 -7 -7 -7 -7 -7 -7 -7 -7 -7 -7 -7 -7 -7 -8 -8 -7 -7 -7 -8 -8 -8 -8 -8 -8 -8 -7 -7 -7 -7 -7 -6 -6 -6 -6 -7 -7 -7 -8 -8 -8 -8 -8 -8
-7 -7 -7 -7 -7 -7 -7 -7 -7 -7 -7 -7 -7 -7 -7 -7 -7 -7 -7 -7 -7 -7 -7 -7 -7 -7 -7 -7 -7 -7 -7 -7 -7 -8 -8 -8 -8 -8 -8 -8 -8 -8 -7 -8 -8 -8 -8 -7 -7 -7 -7 -6 -6 -6 -6 -7 -7 -7 -8 -8 -8 -8 -9
-7 -7 -7 -7 -7 -7 -7 -7 -7 -8 -8 -7 -7 -7 -7 -7 -7 -7 -7 -7 -7 -7 -7 -7 -7 -7 -7 -7 -7 -7 -7 -7 -8 -8 -8 -8 -8 -8 -8 -8 -8 -8 -8 -8 -7 -8 -8 -8 -7 -7 -7 -7 -7 -6 -6 -6 -7 -7 -8 -8 -8 -9 -9
-7 -7 -7 -7 -7 -7 -7 -7 -7 -7 -7 -8 -7 -7 -7 -7 -7 -7 -7 -7 -7 -7 -7 -7 -7 -7 -7 -7 -7 -7 -7 -8 -8 -8 -8 -8 -8 -8 -8 -8 -8 -8 -8 -8 -7 -7 -7 -7 -7 -7 -7 -7 -7 -7 -7 -7 -7 -7 -8 -8 -8 -9 -9
-7 -7 -7 -7 -7 -7 -7 -8 -8 -7 -7 -8 -7 -7 -7 -7 -7 -7 -7 -7 -7 -7 -7 -7 -7 -7 -7 -7 -7 -8 -8 -8 -8 -8 -8 -8 -8 -8 -8 -8 -8 -8 -8 -8 -8 -7 -7 -7 -7 -7 -7 -7 -7 -7 -7 -7 -7 -7 -8 -8 -8 -9 -9
-8 -8 -7 -7 -7 -7 -7 -8 -8 -8 -8 -8 -7 -7 -7 -7 -7 -7 -7 -7 -7 -7 -7 -7 -8 -8 -8 -8 -8 -8 -8 -8 -8 -8 -8 -8 -8 -8 -8 -8 -8 -8 -8 -8 -7 -7 -7 -7 -7 -7 -7 -7 -7 -7 -8 -8 -8 -8 -8 -8 -9 -9 -9
-8 -8 -7 -7 -7 -7 -7 -7 -8 -8 -8 -8 -8 -8 -8 -8 -8 -7 -7 -7 -7 -7 -7 -7 -8 -8 -8 -8 -8 -8 -8 -8 -9 -9 -9 -8 -8 -8 -8 -8 -8 -8 -8 -8 -7 -7 -7 -7 -7 -7 -7 -8 -8 -8 -8 -8 -8 -8 -8 -9 -9 -9 -9
-8 -8 -8 -8 -8 -7 -7 -7 -8 -8 -8 -8 -8 -8 -8 -8 -8 -8 -7 -7 -7 -7 -7 -7 -8 -8 -8 -9 -9 -9 -9 -9 -9 -9 -9 -8 -8 -8 -8 -8 -8 -8 -7 -7 -7 -7 -7 -7 -7 -7 -8 -8 -8 -8 -8 -8 -8 -8 -9 -9 -9 -9 -9
-8 -8 -8 -8 -8 -8 -8 -8 -8 -8 -8 -8 -8 -8 -8 -8 -8 -8 -8 -8 -8 -7 -7 -8 -8 -8 -9 -9 -9 -9 -9 -9 -9 -9 -8 -8 -8 -8 -8 -9 -8 -8 -8 -8 -8 -7 -8 -8 -8 -8 -8 -8 -8 -8 -8 -8 -9 -9 -9 -9 -10 -10 -10
-8 -8 -8 -8 -8 -8 -8 -8 -8 -8 -8 -8 -8 -8 -8 -8 -8 -8 -8 -8 -8 -8 -8 -8 -8 -9 -9 -9 -9 -9 -9 -8 -8 -8 -8 -8 -8 -9 -9 -9 -8 -8 -8 -8 -8 -8 -8 -8 -8 -8 -8 -8 -8 -8 -9 -9 -9 -9 -9 -10 -10 -10 -10
-8 -8 -8 -8 -8 -8 -8 -8 -8 -8 -8 -8 -8 -8 -8 -8 -8 -8 -8 -8 -8 -8 -8 -9 -9 -9 -9 -9 -9 -9 -9 -8 -8 -9 -9 -9 -9 -8 -8 -8 -8 -8 -8 -8 -8 -8 -8 -8 -8 -8 -8 -8 -8 -9 -9 -10 -10 -10 -10 -10 -10 -10 -10
-9 -8 -8 -8 -8 -8 -8 -8 -8 -8 -8 -8 -8 -8 -8 -8 -8 -8 -8 -8 -8 -8 -8 -9 -9 -9 -9 -9 -9 -9 -9 -9 -9 -9 -9 -8 -8 -8 -8 -8 -8 -8 -8 -8 -8 -8 -8 -8 -8 -8 -8 -8 -9 -9 -9 -10 -11 -11 -10 -10 -10 -10 -10
-9 -9 -8 -8 -8 -8 -8 -8 -8 -8 -8 -8 -8 -8 -8 -8 -9 -8 -8 -8 -8 -8 -8 -8 -9 -9 -8 -8 -9 -9 -9 -8 -8 -8 -8 -8 -8 -8 -8 -8 -8 -8 -8 -8 -8 -8 -8 -8 -8 -9 -9 -8 -9 -9 -10 -10 -10 -10 -11 -11 -10 -10 -11
-9 -9 -9 -8 -8 -8 -8 -8 -8 -8 -8 -8 -8 -8 -9 -9 -9 -8 -8 -8 -8 -8 -8 -8 -9 -9 -9 -9 -9 -9 -8 -8 -8 -8 -8 -8 -8 -8 -8 -8 -8 -8 -8 -8 -8 -8 -8 -8 -8 -9 -9 -9 -8 -9 -10 -10 -10 -10 -11 -11 -11 -11 -10
-9 -9 -9 -9 -9 -8 -8 -8 -8 -8 -9 -9 -9 -9 -9 -9 -9 -9 -8 -8 -9 -9 -9 -9 -9 -9 -9 -9 -9 -9 -9 -9 -8 -8 -8 -8 -8 -9 -8 -8 -8 -8 -8 -8 -8 -8 -8 -8 -8 -8 -9 -10 -9 -9 -10 -10 -9 -10 -11 -11 -11 -11 -10
-9 -9 -9 -9 -9 -9 -9 -9 -9 -9 -9 -9 -9 -9 -9 -9 -9 -9 -9 -9 -9 -9 -9 -9 -9 -9 -9 -10 -10 -9 -9 -9 -9 -9 -9 -9 -9 -9 -9 -9 -9 -9 -9 -9 -9 -8 -8 -8 -8 -8 -9 -9 -9 -9 -10 -10 -9 -10 -11 -11 -11 -11 -10
-10 -10 -10 -9 -9 -9 -9 -9 -9 -9 -9 -9 -9 -9 -9 -10 -10 -9 -9 -9 -9 -10 -10 -10 -10 -10 -10 -10 -10 -10 -10 -10 -9 -9 -9 -9 -9 -9 -9 -9 -9 -9 -9 -9 -9 -9 -8 -8 -8 -8 -9 -9 -10 -10 -10 -10 -10 -10 -10 -11 -11 -11 -11
-10 -10 -10 -9 -9 -9 -9 -9 -9 -9 -9 -9 -9 -9 -10 -10 -10 -9 -10 -10 -9 -9 -10 -10 -10 -10 -10 -10 -10 -10 -10 -10 -10 -9 -9 -9 -9 -9 -9 -9 -9 -9 -9 -9 -9 -9 -9 -9 -8 -8 -9 -9 -10 -10 -10 -10 -10 -10 -10 -11 -11 -11 -11
-10 -10 -10 -10 -10 -10 -10 -10 -10 -10 -10 -10 -10 -10 -10 -10 -10 -10 -10 -10 -10 -10 -10 -10 -10 -10 -10 -10 -10 -10 -10 -10 -10 -10 -10 -9 -9 -9 -9 -9 -9 -9 -9 -9 -9 -9 -9 -9 -9 -9 -9 -9 -10 -10 -10 -10 -10 -10 -10 -10 -11 -11 -11
-11 -10 -10 -10 -10 -10 -10 -10 -10 -10 -10 -10 -10 -10 -10 -10 -10 -10 -10 -10 -10 -10 -10 -10 -10 -10 -10 -10 -10 -10 -10 -10 -10 -10 -10 -10 -9 -9 -9 -9 -9 -9 -9 -9 -9 -9 -9 -9 -9 -9 -9 -9 -10 -10 -10 -10 -10 -10 -10 -10 -10 -11 -11
-11 -11 -11 -10 -11 -11 -11 -11 -11 -11 -11 -11 -11 -11 -10 -10 -10 -10 -10 -10 -10 -10 -10 -11 -11 -10 -10 -10 -10 -10 -10 -10 -10 -10 -10 -10 -10 -10 -10 -10 -9 -9 -9 -9 -9 -9 -9 -9 -10 -10 -9 -9 -10 -10 -10 -10 -10 -11 -11 -11 -11 -11 -11
-11 -11 -11 -11 -11 -11 -11 -11 -11 -11 -11 -11 -11 -11 -11 -11 -11 -11 -11 -11 -11 -11 -11 -11 -11 -10 -10 -10 -10 -10 -10 -10 -10 -10 -10 -10 -10 -10 -10 -10 -10 -10 -10 -10 -9 -9 -9 -9 -10 -10 -10 -10 -10 -10 -10 -10 -11 -11 -11 -12 -12 -12 -12
-11 -11 -11 -11 -11 -11 -11 -11 -11 -11 -11 -11 -11 -11 -11 -11 -11 -11 -11 -11 -11 -11 -11 -11 -11 -11 -11 -11 -11 -11 -11 -10 -11 -11 -10 -10 -10 -10 -10 -10 -10 -10 -10 -10 -10 -9 -9 -10 -10 -10 -10 -10 -10 -10 -10 -11 -11 -11 -11 -12 -12 -12 -12
-12 -12 -11 -11 -11 -11 -11 -11 -11 -11 -11 -11 -12 -12 -12 -12 -11 -11 -11 -11 -11 -11 -11 -11 -11 -11 -11 -11 -11 -11 -11 -11 -11 -11 -11 -10 -10 -10 -10 -10 -10 -10 -10 -10 -10 -10 -10 -10 -10 -10 -10 -10 -10 -11 -11 -11 -11 -11 -12 -12 -12 -12 -12
Height
5877 5880 5883 5886 5887 5890 5893 5893 5893 5895 5898 5900 5901 5902 5903 5903 5903 5903 5904 5903 5902 5903 5905 5905 5907 5909 5911 5911 5910 5910 5910 5910 5911 5911 5913 5914 5915 5915 5914 5914 5914 5915 5914 5914 5913 5913 5912 5911 5911 5910 5910 5910 5909 5909 5908 5907 5907 5906 5905 5904 5904 5904 5903
5875 5878 5881 5884 5885 5887 5889 5890 5892 5895 5897 5897 5898 5899 5899 5899 5899 5899 5900 5901 5900 5901 5902 5902 5904 5906 5907 5908 5908 5908 5908 5909 5909 5910 5911 5912 5912 5911 5910 5910 5911 5912 5912 5912 5910 5910 5909 5908 5908 5907 5907 5907 5906 5906 5906 5905 5904 5904 5903 5902 5901 5901 5900
5874 5876 5878 5880 5882 5884 5886 5889 5892 5893 5893 5892 5893 5895 5895 5896 5896 5896 5897 5898 5897 5898 5898 5899 5901 5903 5904 5905 5905 5905 5906 5907 5908 5908 5908 5909 5908 5907 5907 5908 5908 5909 5909 5909 5908 5907 5906 5905 5905 5905 5905 5904 5904 5903 5903 5903 5902 5901 5901 5900 5899 5898 5898
5871 5873 5873 5874 5877 5880 5883 5885 5887 5889 5890 5891 5892 5893 5893 5894 5893 5893 5894 5895 5894 5894 5895 5896 5898 5900 5901 5902 5902 5903 5904 5905 5905 5905 5905 5905 5904 5904 5905 5905 5905 5906 5906 5906 5905 5904 5903 5902 5902 5902 5902 5902 5901 5901 5900 5900 5900 5899 5898 5898 5897 5896 5895
5866 5867 5868 5871 5875 5877 5879 5879 5881 5884 5886 5888 5890 5890 5890 5891 5891 5891 5892 5891 5890 5891 5892 5893 5895 5896 5897 5898 5900 5901 5901 5902 5902 5901 5901 5900 5900 5901 5902 5903 5903 5903 5903 5903 5902 5902 5901 5900 5900 5900 5900 5899 5899 5898 5898 5897 5897 5897 5896 5895 5894 5893 5892
5860 5862 5865 5870 5874 5876 5876 5877 5878 5880 5883 5885 5886 5886 5886 5887 5888 5888 5889 5887 5887 5888 5890 5891 5892 5893 5894 5895 5897 5897 5898 5898 5898 5898 5898 5898 5898 5899 5900 5901 5901 5901 5900 5900 5900 5899 5899 5899 5898 5898 5897 5897 5897 5896 5895 5894 5894 5894 5893 5892 5891 5890 5889
5857 5860 5864 5868 5871 5873 5875 5876 5878 5879 5880 5881 5882 5884 5885 5885 5885 5885 5886 5884 5883 5885 5887 5889 5889 5890 5891 5892 5893 5894 5894 5895 5896 5896 5897 5896 5896 5897 5898 5899 5899 5898 5897 5897 5896 5896 5896 5896 5895 5895 5895 5894 5894 5893 5892 5891 5891 5890 5889 5889 5888 5887 5886
5856 5858 5861 5864 5867 5870 5871 5872 5874 5876 5877 5878 5880 5882 5883 5883 5883 5882 5883 5882 5880 5882 5885 5886 5887 5887 5888 5889 5890 5891 5892 5893 5894 5895 5895 5894 5894 5894 5894 5895 5896 5895 5894 5893 5893 5893 5893 5893 5893 5893 5892 5891 5891 5890 5888 5888 5887 5887 5886 5885 5884 5883 5882
5851 5853 5855 5857 5861 5864 5867 5868 5871 5873 5874 5876 5877 5879 5880 5880 5880 5880 5880 5880 5879 5880 5881 5882 5884 5885 5886 5887 5888 5889 5890 5891 5892 5893 5893 5892 5892 5891 5891 5891 5891 5892 5891 5891 5891 5891 5891 5891 5890 5890 5889 5888 5888 5886 5885 5884 5884 5883 5882 5882 5880 5879 5877
5845 5847 5849 5851 5855 5860 5864 5866 5868 5870 5872 5873 5873 5875 5875 5876 5877 5878 5878 5878 5878 5879 5879 5880 5881 5882 5884 5885 5885 5886 5888 5889 5890 5890 5891 5891 5890 5889 5889 5888 5888 5889 5890 5889 5889 5889 5888 5888 5888 5887 5886 5885 5884 5883 5882 5881 5880 5880 5879 5878 5877 5875 5873
5843 5845 5849 5852 5855 5858 5860 5863 5865 5867 5869 5870 5871 5871 5871 5873 5875 5876 5876 5876 5876 5877 5878 5878 5879 5880 5882 5883 5883 5884 5885 5885 5886 5887 5889 5889 5888 5887 5886 5885 5886 5886 5887 5887 5887 5886 5886 5885 5885 5884 5883 5882 5881 5879 5878 5877 5877 5876 5875 5874 5873 5871 5869
5843 5845 5848 5852 5854 5856 5858 5860 5862 5864 5865 5866 5866 5867 5869 5871 5872 5873 5874 5874 5874 5875 5876 5877 5877 5878 5879 5879 5880 5881 5881 5882 5882 5884 5886 5886 5885 5884 5883 5883 5883 5883 5884 5884 5884 5883 5883 5882 5881 5880 5879 5878 5877 5876 5874 5873 5873 5872 5871 5870 5868 5867 5866
5841 5844 5846 5849 5851 5853 5855 5858 5859 5861 5862 5862 5863 5864 5866 5867 5868 5869 5871 5871 5872 5873 5874 5875 5876 5876 5876 5876 5876 5877 5878 5878 5878 5880 5882 5882 5882 5881 5880 5880 5881 5881 5881 5881 5880 5880 5878 5877 5877 5876 5875 5874 5873 5872 5870 5869 5869 5868 5866 5865 5864 5864 5863
5838 5841 5843 5846 5848 5849 5852 5854 5856 5858 5859 5860 5861 5862 5864 5864 5865 5867 5868 5868 5869 5870 5871 5873 5874 5874 5874 5873 5873 5873 5874 5874 5874 5876 5877 5878 5879 5880 5879 5879 5878 5878 5878 5878 5878 5877 5875 5874 5873 5872 5871 5870 5869 5868 5867 5866 5865 5864 5862 5861 5861 5860 5859
5835 5838 5841 5844 5845 5846 5848 5850 5852 5853 5854 5854 5856 5858 5859 5861 5862 5864 5864 5864 5865 5867 5868 5869 5870 5870 5870 5869 5869 5870 5870 5870 5870 5871 5872 5874 5876 5877 5877 5876 5876 5875 5875 5875 5874 5873 5872 5871 5869 5868 5867 5866 5865 5864 5863 5862 5861 5859 5857 5857 5856 5856 5855
5830 5834 5837 5840 5842 5843 5845 5846 5848 5849 5849 5849 5851 5852 5853 5855 5857 5859 5859 5860 5862 5864 5865 5865 5865 5865 5865 5865 5865 5865 5865 5866 5867 5868 5869 5870 5872 5872 5872 5872 5872 5872 5871 5871 5870 5869 5869 5867 5866 5865 5863 5861 5860 5859 5858 5857 5856 5855 5853 5852 5852 5851 5850
5826 5830 5833 5836 5839 5840 5841 5842 5843 5845 5845 5845 5847 5847 5848 5850 5852 5854 5855 5857 5860 5862 5862 5862 5862 5862 5861 5861 5861 5861 5862 5862 5863 5864 5865 5866 5866 5866 5866 5866 5867 5867 5867 5867 5866 5865 5864 5863 5862 5861 5859 5857 5855 5854 5853 5853 5852 5850 5849 5847 5847 5847 5846
5823 5826 5829 5833 5836 5837 5836 5837 5838 5840 5840 5841 5843 5844 5844 5846 5849 5851 5852 5854 5856 5858 5858 5859 5859 5859 5859 5858 5858 5858 5859 5859 5860 5860 5860 5860 5860 5860 5860 5861 5861 5862 5863 5863 5863 5862 5860 5859 5858 5856 5854 5853 5851 5849 5848 5847 5846 5845 5844 5843 5843 5843 5842
5819 5822 5826 5829 5830 5831 5832 5832 5833 5834 5835 5836 5838 5839 5841 5843 5844 5846 5848 5850 5852 5853 5854 5854 5854 5855 5855 5855 5855 5855 5855 5855 5855 5855 5856 5856 5856 5856 5857 5858 5858 5857 5857 5858 5859 5857 5856 5854 5853 5852 5850 5848 5846 5844 5843 5842 5841 5840 5838 5837 5837 5837 5837
5814 5818 5822 5823 5824 5826 5828 5828 5829 5830 5831 5833 5834 5835 5837 5839 5840 5842 5844 5846 5848 5850 5851 5851 5850 5850 5851 5851 5851 5852 5852 5851 5852 5852 5853 5853 5854 5854 5855 5855 5855 5854 5853 5853 5853 5852 5850 5849 5848 5846 5845 5843 5840 5839 5838 5837 5836 5834 5832 5831 5831 5831 5831
5808 5813 5816 5818 5820 5823 5824 5824 5825 5827 5828 5830 5830 5831 5833 5835 5836 5838 5839 5841 5844 5846 5847 5848 5847 5847 5848 5848 5848 5848 5848 5848 5849 5849 5850 5851 5852 5852 5852 5852 5851 5849 5849 5848 5848 5846 5845 5843 5842 5840 5838 5837 5835 5833 5833 5832 5831 5829 5827 5825 5825 5826 5826
5804 5808 5811 5814 5817 5818 5819 5819 5821 5823 5825 5827 5828 5828 5828 5830 5833 5834 5835 5837 5839 5841 5842 5843 5843 5843 5844 5844 5844 5845 5845 5845 5846 5846 5847 5849 5849 5849 5849 5848 5847 5846 5845 5844 5843 5841 5840 5839 5837 5834 5831 5830 5829 5827 5826 5825 5825 5824 5823 5821 5820 5821 5821
5800 5803 5806 5809 5812 5813 5813 5815 5817 5819 5820 5821 5825 5825 5823 5824 5829 5831 5831 5833 5834 5836 5838 5838 5839 5840 5841 5840 5841 5841 5841 5842 5843 5844 5845 5846 5846 5845 5845 5845 5844 5843 5841 5840 5838 5837 5836 5834 5831 5828 5826 5825 5822 5819 5817 5818 5819 5819 5818 5817 5816 5816 5816
5795 5798 5801 5804 5805 5806 5808 5809 5811 5813 5814 5816 5822 5822 5818 5819 5826 5827 5828 5829 5830 5831 5834 5834 5835 5836 5836 5836 5837 5837 5838 5840 5841 5841 5841 5842 5842 5841 5840 5840 5840 5839 5838 5836 5835 5833 5832 5830 5827 5823 5821 5818 5812 5808 5807 5809 5811 5812 5812 5811 5811 5811 5810
5790 5793 5795 5797 5798 5799 5802 5804 5806 5808 5811 5814 5818 5817 5814 5817 5822 5823 5824 5825 5826 5827 5829 5829 5830 5832 5833 5833 5833 5834 5836 5837 5837 5837 5837 5837 5837 5836 5836 5835 5835 5834 5833 5832 5831 5829 5827 5825 5821 5818 5816 5813 5808 5806 5805 5803 5803 5804 5805 5805 5805 5805 5804
5784 5788 5791 5793 5794 5795 5797 5800 5803 5807 5811 5812 5813 5812 5813 5815 5818 5818 5819 5820 5821 5822 5824 5824 5825 5826 5827 5828 5828 5829 5831 5832 5831 5831 5832 5832 5831 5831 5830 5830 5830 5829 5828 5827 5826 5824 5821 5819 5816 5813 5812 5811 5808 5807 5807 5802 5796 5797 5800 5800 5800 5800 5801
5779 5782 5786 5788 5789 5790 5794 5798 5801 5805 5807 5807 5807 5809 5811 5812 5814 5815 5815 5816 5816 5817 5818 5819 5819 5820 5820 5821 5821 5822 5822 5823 5825 5826 5826 5826 5826 5825 5825 5825 5825 5824 5823 5821 5820 5818 5815 5813 5810 5808 5808 5806 5803 5802 5802 5797 5793 5794 5795 5794 5795 5796 5797
5776 5778 5780 5783 5786 5788 5792 5796 5799 5800 5801 5802 5804 5806 5807 5808 5810 5811 5811 5812 5812 5813 5813 5814 5814 5813 5814 5814 5813 5813 5814 5817 5819 5820 5819 5820 5820 5820 5819 5818 5818 5818 5818 5816 5814 5812 5810 5808 5806 5803 5801 5800 5798 5796 5794 5791 5790 5790 5790 5790 5791 5792 5793
5773 5774 5777 5781 5784 5786 5790 5793 5796 5797 5798 5798 5799 5800 5801 5803 5804 5805 5806 5807 5807 5807 5808 5809 5808 5808 5808 5807 5807 5808 5809 5810 5812 5812 5813 5814 5814 5814 5813 5813 5812 5812 5811 5810 5809 5807 5805 5804 5802 5799 5797 5795 5794 5791 5789 5787 5785 5784 5785 5785 5786 5787 5788
5768 5771 5774 5777 5779 5781 5785 5788 5791 5793 5794 5795 5795 5796 5796 5797 5798 5799 5799 5800 5800 5801 5801 5801 5801 5802 5802 5802 5803 5804 5805 5805 5806 5806 5808 5808 5808 5808 5807 5807 5806 5805 5805 5804 5803 5802 5801 5800 5798 5796 5793 5792 5790 5787 5784 5782 5780 5780 5780 5780 5780 5781 5783
5763 5766 5769 5772 5775 5778 5781 5784 5786 5788 5790 5790 5791 5792 5792 5792 5791 5791 5791 5792 5793 5794 5793 5793 5794 5794 5795 5797 5798 5798 5799 5800 5801 5801 5802 5802 5802 5802 5801 5801 5800 5800 5799 5798 5796 5795 5795 5795 5794 5792 5790 5788 5787 5786 5784 5780 5776 5776 5777 5776 5775 5775 5776
5759 5761 5765 5768 5771 5774 5777 5779 5781 5783 5784 5785 5786 5787 5787 5786 5785 5784 5784 5785 5786 5787 5787 5787 5788 5788 5789 5791 5793 5794 5795 5795 5796 5796 5796 5797 5797 5796 5795 5795 5794 5794 5793 5792 5791 5789 5789 5789 5788 5787 5786 5784 5783 5784 5783 5779 5774 5773 5774 5772 5770 5769 5770
5757 5759 5761 5764 5766 5769 5772 5774 5775 5777 5778 5779 5779 5780 5781 5781 5780 5779 5778 5779 5780 5781 5782 5782 5783 5784 5784 5786 5787 5789 5789 5790 5790 5791 5791 5791 5791 5791 5790 5790 5789 5788 5788 5787 5785 5784 5783 5783 5783 5782 5781 5779 5778 5778 5777 5774 5772 5771 5770 5768 5767 5766 5765
5754 5756 5757 5759 5762 5764 5767 5768 5769 5771 5772 5773 5774 5774 5775 5775 5775 5774 5773 5774 5775 5776 5776 5777 5779 5780 5781 5781 5782 5783 5783 5784 5785 5785 5785 5785 5785 5785 5785 5784 5784 5783 5782 5782 5781 5779 5777 5777 5778 5777 5775 5773 5772 5771 5769 5768 5767 5766 5763 5762 5761 5760 5759
5751 5752 5753 5755 5758 5760 5762 5763 5765 5766 5767 5768 5769 5770 5770 5770 5770 5769 5769 5770 5770 5770 5771 5772 5774 5775 5776 5776 5777 5777 5778 5779 5779 5779 5780 5780 5780 5780 5779 5779 5778 5777 5777 5776 5775 5774 5773 5772 5771 5770 5769 5768 5767 5765 5764 5762 5762 5759 5756 5755 5754 5753 5753
5747 5747 5748 5752 5755 5757 5757 5759 5762 5762 5763 5763 5764 5765 5766 5766 5766 5766 5765 5765 5766 5766 5766 5768 5769 5771 5771 5771 5772 5772 5773 5773 5774 5774 5774 5774 5774 5774 5774 5773 5772 5772 5771 5770 5769 5769 5768 5767 5765 5764 5763 5761 5760 5760 5759 5758 5757 5754 5751 5749 5748 5748 5747
5741 5742 5745 5749 5752 5753 5753 5755 5757 5757 5758 5759 5760 5762 5762 5762 5762 5762 5762 5762 5762 5762 5762 5763 5764 5765 5766 5767 5767 5768 5768 5768 5768 5768 5768 5768 5768 5768 5768 5768 5767 5766 5765 5764 5763 5763 5762 5761 5760 5758 5756 5755 5754 5754 5753 5752 5751 5748 5745 5743 5743 5742 5741
Wind_Speed
30 29 29 30 33 33 33 42 45 42 39 36 33 31 29 28 29 32 34 38 43 41 37 34 34 34 29 24 21 21 21 21 21 19 18 17 16 16 14 10 8 10 12 13 14 15 16 18 19 19 20 20 21 22 21 21 20 20 20 19 19 19 19
27 24 27 31 32 30 31 38 44 42 37 35 34 31 29 29 29 29 28 30 36 35 31 28 27 27 25 22 21 21 21 21 19 19 18 17 17 16 14 12 13 16 17 15 15 16 17 19 20 19 19 21 22 23 23 22 21 21 20 20 20 20 20
25 23 29 34 34 31 28 29 36 41 38 36 37 34 31 31 31 32 28 25 26 25 24 24 22 22 22 21 21 21 20 20 20 21 21 20 19 19 18 17 19 22 21 18 17 18 19 20 20 20 20 21 22 24 24 23 22 22 22 21 21 22 21
27 27 31 36 36 33 30 28 31 38 37 33 34 33 33 32 33 36 34 29 27 24 23 23 22 21 21 21 21 21 21 21 23 24 24 22 22 23 23 23 24 25 23 21 18 18 20 21 21 20 19 21 22 23 24 23 23 23 23 23 24 25 24
30 32 33 30 26 26 33 37 36 37 37 33 31 31 33 35 36 36 33 31 29 26 23 22 22 21 21 20 18 18 21 23 24 24 23 24 25 26 26 26 26 25 22 21 18 17 18 19 19 19 19 20 22 23 24 23 23 22 23 24 26 27 26
32 34 30 22 16 19 30 40 38 35 33 30 30 31 30 31 33 32 28 27 27 26 24 23 25 25 25 23 22 21 22 22 22 23 24 26 27 27 27 26 24 23 21 20 18 17 17 17 17 18 19 20 22 23 24 24 23 23 24 25 26 28 28
32 32 28 22 18 19 28 36 34 31 30 29 29 29 24 22 25 27 26 28 30 30 29 28 29 30 30 29 27 24 23 22 22 23 25 27 28 28 29 27 24 22 21 20 19 17 16 16 16 18 19 21 22 24 25 25 24 25 26 26 27 28 28
33 30 26 23 20 22 31 36 33 31 31 30 30 29 24 21 23 25 26 29 31 31 30 31 30 31 32 32 29 26 23 23 24 25 27 28 29 31 31 30 26 22 19 18 17 16 15 15 16 17 19 21 22 24 25 26 26 27 27 27 27 27 28
36 32 29 27 25 26 34 38 35 33 32 33 33 32 28 25 23 24 24 27 29 29 28 28 27 28 30 31 30 28 26 26 27 27 27 29 31 32 32 30 27 21 16 15 15 15 15 16 16 18 19 21 22 23 25 26 27 28 28 27 27 27 27
40 36 32 30 29 28 31 34 34 33 33 36 38 36 33 30 26 25 25 26 28 29 27 25 25 25 26 29 31 31 30 29 28 27 27 28 31 31 29 27 26 21 15 14 15 15 16 17 18 19 21 22 22 23 25 26 27 27 27 26 26 27 27
41 37 29 24 25 27 28 30 30 30 30 35 41 40 37 35 30 28 27 26 26 28 27 26 27 26 26 29 31 32 32 31 29 30 29 29 29 29 28 28 26 21 16 14 15 16 18 19 19 21 22 23 23 24 25 26 26 26 26 26 27 28 28
37 32 27 26 27 26 25 25 26 27 26 30 41 43 39 36 34 30 27 26 25 24 25 27 29 29 30 31 32 32 33 32 33 33 32 31 31 29 26 24 23 20 19 19 19 19 20 20 21 22 23 24 25 25 26 26 25 26 26 27 28 29 28
36 29 26 29 32 31 28 24 24 25 23 25 36 43 40 38 39 35 31 30 30 28 26 27 28 29 29 30 31 32 33 35 37 36 33 32 31 26 22 22 24 25 25 25 24 24 24 24 25 25 25 25 25 26 26 26 26 26 28 29 29 28 27
36 31 27 28 32 35 32 27 25 26 25 24 29 38 41 39 38 38 36 35 35 32 30 27 25 25 26 28 31 32 34 37 38 36 34 33 30 27 26 28 32 34 32 29 27 26 27 28 29 29 28 27 26 26 27 27 27 27 29 29 28 27 25
38 33 30 29 32 35 33 29 30 31 32 31 29 33 40 40 36 36 36 36 36 34 32 29 27 27 29 30 32 34 37 39 39 39 38 36 34 32 30 30 31 33 34 32 29 28 28 30 32 32 31 29 28 28 28 28 28 29 29 28 27 25 24
43 39 36 32 32 34 33 31 34 36 35 35 32 33 38 40 36 35 36 39 37 33 31 30 29 30 32 34 36 39 40 40 40 40 40 39 37 34 32 31 32 34 34 34 33 31 31 32 33 33 32 31 30 29 29 29 29 30 29 28 26 26 26
43 41 40 37 34 34 34 34 38 39 37 34 32 33 38 39 36 35 36 39 37 32 30 31 32 34 36 38 39 40 40 40 41 41 42 42 39 36 35 36 39 40 37 34 34 35 34 34 34 34 33 33 32 31 30 30 30 30 31 30 29 27 27
40 39 39 40 39 39 38 37 37 37 39 38 34 34 38 40 39 37 36 36 34 33 31 30 31 34 36 37 37 39 41 42 42 43 42 41 39 38 39 41 44 44 38 34 35 36 35 36 37 37 35 35 34 33 32 31 31 32 32 32 30 28 28
42 40 39 41 44 46 44 42 39 36 37 41 41 37 36 38 40 40 39 36 34 34 33 31 29 29 33 37 39 40 41 41 41 41 40 39 39 41 43 45 46 44 42 41 41 39 38 39 38 37 37 36 35 35 33 32 32 32 33 33 32 30 30
47 44 42 43 45 46 46 47 45 41 38 39 41 40 37 36 38 39 39 39 39 39 38 37 36 34 33 36 38 38 38 39 39 38 39 41 42 44 46 46 45 45 46 46 44 41 41 41 40 39 38 37 37 36 35 34 33 33 34 35 33 32 32
51 48 46 45 45 43 44 47 48 45 42 40 40 40 40 40 39 38 39 41 42 44 45 45 45 41 35 33 35 35 36 39 41 41 43 44 44 46 46 44 43 43 43 42 42 42 43 42 41 41 40 38 38 38 37 36 35 35 36 36 34 31 30
47 50 49 48 47 45 44 45 49 49 47 44 42 41 42 42 40 39 42 44 44 45 46 45 44 41 38 37 38 41 43 46 47 47 46 45 45 45 43 39 38 40 41 41 42 42 43 42 41 42 42 41 41 41 40 38 37 36 36 36 34 31 30
43 48 50 50 50 51 50 48 50 52 50 48 45 42 43 45 43 40 42 44 45 44 42 39 36 35 39 43 46 48 49 50 50 48 46 44 44 44 42 39 39 40 41 41 40 40 40 40 41 44 44 45 47 48 45 40 36 36 36 34 32 31 30
47 48 50 51 50 52 55 54 53 52 53 52 49 46 45 45 43 42 42 42 43 44 42 39 37 36 39 43 45 48 49 49 49 48 46 46 47 48 48 46 44 40 39 38 38 38 38 40 43 44 45 49 53 53 48 41 36 35 36 33 31 31 30
52 52 52 53 53 54 57 59 58 55 53 52 51 50 50 48 45 44 44 43 44 46 46 46 46 46 46 46 48 48 48 48 50 52 52 54 55 55 53 49 43 39 37 37 38 38 39 41 43 42 42 45 48 47 44 40 37 36 35 33 31 32 31
51 53 54 54 55 56 58 59 59 57 54 51 51 52 53 52 49 48 47 47 47 49 50 51 53 54 55 56 56 56 54 54 55 55 55 55 56 55 49 42 37 36 37 38 38 39 40 41 43 42 38 38 40 40 36 32 33 34 34 32 31 31 29
50 52 54 55 56 58 58 57 58 58 55 53 53 54 54 54 52 52 51 51 52 52 54 55 56 55 56 57 58 60 61 61 59 57 55 53 52 49 43 37 35 35 36 37 38 39 40 41 42 42 36 34 36 34 32 30 28 29 30 30 29 27 26
55 54 54 55 56 56 54 52 54 57 57 54 55 57 57 57 57 57 56 56 56 55 54 54 53 52 52 52 54 57 58 58 58 58 57 53 48 42 38 37 36 35 35 36 36 37 39 39 41 41 38 35 32 27 35 35 28 23 24 26 23 21 22
52 52 52 52 51 50 47 43 43 48 50 49 50 53 56 57 59 59 60 60 58 56 53 51 50 51 52 51 49 50 51 52 53 52 49 44 40 38 37 38 37 36 34 34 34 34 35 36 38 40 40 38 33 28 39 38 26 21 21 20 18 22 30
44 46 49 51 49 47 44 41 39 40 43 45 46 48 50 52 52 53 53 54 53 49 47 46 48 50 50 47 44 45 46 45 43 40 36 33 33 34 34 34 34 34 33 32 32 33 34 34 35 38 38 37 35 31 41 41 33 29 26 22 21 30 36
44 45 48 51 50 48 46 43 40 39 41 42 41 42 44 46 47 48 48 46 45 44 44 44 44 43 40 37 37 39 39 36 34 32 30 30 30 30 31 32 32 32 32 33 34 34 34 34 34 35 36 36 34 31 35 39 35 29 27 28 33 40 41
44 45 46 47 48 48 48 46 43 41 41 41 40 41 44 46 46 46 44 42 41 43 45 43 40 35 32 30 31 32 32 31 30 31 31 31 31 32 32 33 33 33 33 33 34 34 34 34 34 34 35 36 35 31 32 37 38 37 39 45 52 54 52
40 42 43 43 43 43 42 41 40 40 41 42 42 41 42 45 46 45 42 40 39 40 40 39 34 31 30 30 31 32 32 32 32 32 32 32 33 33 33 33 34 34 34 33 34 35 35 34 34 34 35 36 37 36 37 40 43 46 50 55 57 57 53
37 38 39 40 39 38 36 36 36 36 34 34 35 34 34 39 44 43 39 37 37 37 37 36 33 32 31 31 32 32 32 31 31 31 31 31 32 32 33 33 33 33 34 34 35 36 37 36 35 36 37 38 39 41 43 43 43 46 51 55 55 51 45
38 38 39 39 37 35 35 36 36 36 34 32 32 32 32 33 37 37 35 33 33 32 32 32 31 31 30 30 30 30 29 30 30 31 31 31 32 32 32 33 33 34 35 35 35 36 38 38 38 38 38 40 42 44 45 44 43 46 51 51 47 43 41
39 39 40 39 38 37 38 37 37 37 37 36 34 34 33 33 35 36 35 32 30 28 28 29 29 29 28 28 29 29 29 30 30 31 32 33 33 34 34 34 35 35 36 37 38 38 39 39 40 41 41 42 43 43 43 41 42 46 49 49 46 46 47
41 41 40 40 40 40 40 40 39 39 39 37 35 35 35 36 36 36 33 31 29 29 29 29 29 29 29 29 30 31 32 33 33 34 34 35 35 35 35 35 36 37 38 39 40 41 41 41 42 42 43 43 42 41 41 40 41 45 49 50 51 53 54
Wind_Direction
219 210 204 198 200 210 204 194 196 199 203 210 215 219 226 234 239 240 241 246 248 249 252 256 253 251 255 262 269 274 277 286 297 303 305 304 302 304 305 304 301 302 297 285 277 269 265 268 271 276 282 286 286 285 288 291 293 293 286 280 282 287 290
221 215 201 204 212 215 212 205 202 200 205 212 216 222 233 237 240 243 243 241 243 247 253 257 254 251 255 265 273 276 279 285 291 294 295 299 306 311 313 314 319 320 312 296 283 274 267 266 268 274 281 284 285 286 288 291 293 292 287 283 285 288 290
210 212 200 204 216 220 220 218 210 206 209 217 218 221 229 236 242 244 238 234 235 240 248 255 256 256 259 267 272 273 279 284 284 285 289 298 305 309 311 310 312 313 308 296 286 276 270 269 270 275 280 282 284 285 288 291 292 291 289 287 289 291 293
200 212 209 205 214 221 218 213 209 209 216 225 228 230 235 240 245 244 242 247 246 241 246 252 255 257 257 259 265 270 274 276 278 282 290 299 302 303 305 308 308 307 301 294 287 277 270 270 273 277 279 281 283 285 287 290 291 291 290 290 292 295 297
196 213 220 213 217 224 213 202 200 206 215 224 230 238 244 247 248 247 248 256 255 251 254 255 256 260 259 257 260 263 264 267 274 284 294 299 298 299 303 306 306 302 297 293 288 279 272 271 273 276 277 280 282 285 286 288 290 291 291 291 293 296 298
197 208 220 217 221 236 220 208 207 210 213 221 228 233 239 241 241 243 250 260 259 257 258 258 261 262 261 260 261 262 264 269 277 286 294 295 294 297 301 302 301 297 294 293 290 284 278 275 276 277 279 281 282 284 285 287 290 291 290 291 292 294 296
202 203 209 208 215 238 226 215 222 224 220 224 226 228 236 238 235 238 249 257 257 254 252 255 261 261 259 261 265 269 272 276 282 287 289 290 292 295 297 298 298 294 290 291 290 288 285 283 283 283 284 284 285 285 286 288 289 289 289 290 291 292 293
208 205 206 203 206 223 219 216 226 228 222 224 224 226 234 237 236 241 247 252 255 256 254 257 261 260 257 260 265 271 275 278 282 285 289 292 294 296 297 297 297 295 290 288 289 291 291 288 287 288 289 289 288 287 286 287 287 287 287 287 288 289 289
206 205 201 197 197 209 215 218 227 231 227 226 226 225 226 224 229 239 245 250 255 260 263 264 266 264 260 262 266 269 270 274 278 282 288 293 295 296 297 296 296 295 291 287 288 292 293 292 290 292 294 293 291 287 284 285 285 284 284 285 286 286 286
203 203 200 198 198 205 214 217 224 232 233 231 232 229 222 220 226 232 239 247 252 256 263 266 268 267 264 264 265 266 268 274 279 281 286 293 296 296 293 294 295 290 281 281 286 291 294 293 292 293 296 296 293 288 284 282 282 282 282 284 285 284 284
207 210 209 209 210 212 217 217 218 226 230 231 234 233 224 224 232 237 239 246 250 252 257 264 268 270 268 266 265 268 274 280 280 281 289 297 299 294 287 287 290 286 281 284 287 289 291 292 294 296 298 297 294 290 285 281 280 280 282 283 283 281 281
211 213 208 213 225 226 222 220 219 225 232 227 224 225 226 228 232 237 240 243 246 250 254 260 265 268 270 272 274 277 282 284 281 284 293 297 298 297 289 284 286 287 290 294 292 291 292 295 299 300 299 298 295 290 286 282 280 280 281 281 279 279 281
209 206 202 212 227 229 225 228 226 225 235 234 221 219 222 225 228 233 239 241 242 247 254 261 265 269 273 276 278 279 280 280 281 285 291 292 295 300 300 296 294 290 290 292 293 294 297 301 303 302 300 298 295 290 286 283 281 279 278 278 277 279 283
208 202 199 208 221 225 225 229 229 222 226 231 226 223 223 225 230 235 240 243 246 253 263 268 268 270 271 272 272 273 274 276 280 285 289 290 295 298 296 296 294 289 287 289 291 292 297 301 301 299 299 298 295 291 287 284 282 278 277 277 279 283 285
209 202 198 204 215 223 224 223 221 220 222 223 224 227 227 228 232 235 238 241 247 255 261 260 257 257 259 261 264 267 271 275 279 284 288 292 296 293 288 290 293 290 286 287 290 293 295 296 297 297 297 296 294 291 288 285 283 280 278 280 282 282 278
212 206 203 206 211 215 217 216 214 217 224 228 228 225 223 224 229 235 239 240 244 252 254 252 253 258 261 263 266 271 274 278 281 285 288 290 290 287 286 293 299 296 291 289 292 294 293 293 295 296 295 293 292 289 286 284 281 279 279 279 278 276 274
216 214 212 211 210 208 208 208 210 214 222 229 231 223 219 223 230 238 242 241 242 247 251 254 260 265 268 270 272 274 277 280 281 283 284 285 285 288 293 298 301 299 294 290 291 292 292 292 293 294 293 291 289 286 284 282 279 276 274 273 273 273 274
217 221 220 216 215 214 213 210 212 219 223 223 223 220 219 222 227 232 237 239 239 239 240 248 258 264 267 268 270 273 275 276 277 277 279 282 286 293 296 297 298 296 290 287 289 289 289 291 292 293 291 288 285 283 281 278 275 273 272 272 271 271 271
215 219 221 220 221 222 221 219 219 226 227 222 221 222 221 222 225 227 229 232 235 235 235 240 246 251 257 260 262 264 266 267 269 272 277 283 287 290 291 292 293 289 284 285 288 289 291 293 292 290 288 284 281 278 276 275 273 272 271 270 269 268 269
215 217 218 222 225 226 227 225 225 229 230 225 225 229 229 229 230 230 228 230 233 235 237 241 244 247 249 250 251 255 258 262 268 273 277 281 282 284 287 289 288 285 283 285 287 289 292 293 291 288 285 280 277 275 273 272 271 270 270 269 269 269 270
216 218 218 221 225 228 229 229 228 230 231 228 229 234 235 235 236 237 236 236 236 236 238 243 247 249 247 245 249 255 260 265 270 273 275 277 280 284 287 288 287 285 284 285 287 289 291 290 289 287 282 278 275 273 272 270 268 267 267 268 269 271 272
215 218 219 221 225 227 229 229 228 229 231 230 230 233 236 236 237 241 244 246 245 244 244 246 248 247 246 249 255 259 262 265 267 270 273 277 281 285 286 285 284 284 285 286 288 289 289 288 287 285 282 280 278 275 272 268 265 263 262 264 267 270 272
212 216 219 221 223 225 227 227 225 225 228 229 226 229 235 236 235 239 244 247 249 250 250 251 251 248 247 250 254 257 260 263 266 269 273 276 279 280 279 280 283 283 284 286 286 286 286 285 285 285 285 286 283 278 272 265 261 260 260 263 268 270 272
214 216 219 220 220 221 222 223 223 224 227 227 225 229 237 239 239 241 241 243 246 246 248 251 252 250 248 249 253 256 260 263 267 270 272 273 275 277 277 278 281 281 281 282 283 283 284 285 285 286 290 290 283 275 268 261 256 256 257 260 264 268 273
216 217 220 221 220 219 220 220 221 223 226 227 228 232 238 241 245 249 248 247 246 245 246 250 253 254 254 253 254 256 260 263 266 268 270 272 274 277 277 277 279 279 279 281 282 282 282 284 284 286 294 294 282 271 267 260 249 247 252 257 264 269 275
213 217 221 223 224 224 223 221 221 222 226 231 234 237 240 242 246 252 254 254 253 250 250 254 257 259 259 259 259 261 262 263 265 266 269 272 274 274 274 274 275 277 278 279 279 279 279 281 283 287 295 298 287 275 264 250 242 246 253 258 265 272 276
211 216 220 224 226 228 228 227 226 225 228 233 236 238 241 244 246 250 252 254 255 255 255 256 258 260 261 261 262 263 263 264 265 267 271 273 273 272 271 272 275 275 276 277 276 277 279 281 286 291 297 303 299 279 249 238 250 263 264 263 267 273 276
213 215 218 222 227 232 234 233 232 230 231 234 237 238 241 244 246 248 250 251 253 255 255 255 255 257 259 260 261 263 264 267 268 268 269 270 269 269 270 273 276 275 275 276 276 278 281 282 288 294 299 308 309 274 240 244 262 270 266 263 264 274 285
218 218 219 223 228 233 237 240 241 237 234 235 236 238 240 242 245 247 248 249 250 252 252 252 254 257 257 257 258 262 265 267 267 266 267 268 267 269 272 274 275 274 274 275 276 278 281 282 287 291 295 307 312 276 245 246 258 271 274 264 263 291 303
234 230 228 229 234 239 244 250 253 250 245 243 241 240 240 242 244 246 247 247 249 250 249 251 255 259 259 258 259 262 264 266 266 266 268 270 271 274 275 275 276 276 276 278 278 280 282 283 285 289 292 303 310 284 254 251 263 275 272 257 267 297 304
246 245 241 239 241 246 249 253 257 257 255 253 248 245 243 243 245 246 247 249 252 254 254 254 255 258 261 261 261 262 263 266 268 270 273 275 276 278 278 277 278 279 280 281 281 281 283 282 284 289 292 298 306 291 262 256 263 267 261 265 284 299 302
246 249 250 247 247 249 251 252 254 255 255 254 254 254 252 250 248 248 247 248 252 255 257 257 253 253 257 260 261 263 267 270 272 274 276 277 277 278 279 279 280 280 281 282 282 282 284 285 286 290 291 293 298 293 271 260 262 267 275 286 293 296 297
246 248 251 252 251 251 251 252 252 253 252 252 254 257 258 255 253 252 248 246 247 250 253 255 255 257 263 267 268 270 272 273 273 273 273 273 273 274 275 276 278 279 280 282 283 284 286 287 288 290 290 290 291 291 284 277 275 276 281 286 287 288 290
247 249 249 250 249 248 249 250 251 251 253 255 256 259 263 261 255 250 247 246 247 250 253 256 260 264 268 271 272 272 272 272 271 271 271 272 272 272 273 274 276 278 279 281 283 284 286 288 288 288 289 290 290 290 291 291 289 285 283 282 281 282 285
245 247 248 247 247 249 250 251 251 254 260 266 268 272 276 273 263 258 259 258 256 258 260 262 264 267 270 272 273 273 273 273 273 273 273 274 274 274 275 276 278 280 281 282 283 284 286 288 289 289 289 290 290 290 291 292 291 287 283 280 279 282 285
243 246 248 249 250 254 257 257 257 261 267 274 276 276 276 274 271 272 273 270 266 267 268 268 269 272 274 274 274 274 274 273 274 274 274 274 273 274 275 277 279 281 282 283 284 284 285 285 287 289 289 289 289 289 290 289 287 283 280 280 283 285 286
245 248 251 252 253 256 260 262 263 265 269 272 272 272 270 269 270 273 274 272 271 273 274 274 275 274 273 272 271 271 271 271 271 272 273 274 274 275 277 279 281 282 282 282 282 282 283 284 286 287 289 290 289 288 287 285 281 278 278 280 283 284 285